#timestamp,LO_Frequency,Hit,StdDev 
1618704015.8,286046999.7,N
1618704035.6,286046999.0,N
1618704055.5,286046997.8,N
1618704075.3,286046999.0,N
1618704095.1,286046998.3,N
1618704115.9,286047000.4,N
1618704135.7,286046998.2,N
1618704155.6,286046996.8,N
1618704175.4,286046998.9,N
1618704195.2,286047000.6,N
1618704215.1,286047002.3,N
1618704216.0,286047002.3,N
1618704235.8,286047000.1,N
1618704255.6,286046999.0,N
1618704275.5,286046996.9,N
1618704295.3,286047000.7,N
1618704315.2,286046999.8,N
1618704335.9,286047000.3,N
1618704355.7,286046996.5,N
1618704375.6,286046996.5,N
1618704395.4,286046996.8,N
1618704415.2,286047000.7,N
1618704435.1,286047001.8,N
1618704436.0,286047001.8,N
1618704455.8,286047001.2,N
1618704475.7,286047001.0,N
1618704495.5,286047002.1,N
1618704515.3,286046999.8,N
1618704535.2,286046999.4,N
1618704555.9,286047000.9,N
1618704575.7,286046999.7,N
1618704595.6,286047000.6,N
1618704615.4,286046999.0,N
1618704635.2,286047000.6,N
1618704655.1,286046998.9,N
1618704656.0,286046998.9,N
1618704675.8,286046996.7,N
1618704695.7,286046995.5,N
1618704715.5,286046995.7,N
1618704735.3,286046993.3,Y
1618704755.2,286046995.1,P
1618704775.0,286046998.6,N
1618704775.9,286046998.6,N
1618704795.8,286047001.1,N
1618704815.6,286047000.9,N
1618704835.4,286046999.0,N
1618704855.3,286046997.4,N
1618704875.1,286046996.9,N
1618704895.8,286046998.4,N
1618704915.7,286046998.7,N
1618704935.5,286047000.0,N
1618704955.3,286046996.5,N
1618704975.2,286046993.7,Y
1618704995.0,286046996.0,P
1618704995.9,286046996.0,P
1618705015.8,286046995.9,P
1618705035.6,286046995.4,Y
1618705055.4,286046996.6,P
1618705075.3,286046997.2,P
1618705095.1,286046995.4,P
1618705115.9,286046995.3,Y
1618705135.7,286047000.0,P
1618705155.5,286047001.7,N
1618705175.4,286047002.0,N
1618705195.2,286046998.5,N
1618705215.0,286046998.9,N
1618705215.9,286046998.9,N
1618705235.8,286046999.8,N
1618705255.6,286047003.6,N
1618705275.5,286047001.3,N
1618705295.3,286047002.8,N
1618705315.1,286047003.4,N
1618705335.9,286047002.9,N
1618705355.7,286047004.2,N
1618705375.5,286047005.7,N
1618705395.4,286047005.8,N
1618705415.2,286047007.3,N
1618705435.1,286047009.2,Y
1618705436.0,286047009.2,P
1618705455.8,286047005.0,N
1618705475.6,286047006.6,N
1618705495.5,286047007.4,N
1618705515.3,286047005.4,N
1618705535.2,286047003.6,N
1618705555.9,286047003.9,N
1618705575.7,286047004.6,N
1618705595.6,286047003.4,N
1618705615.4,286047004.4,N
1618705635.2,286047002.7,N
1618705655.1,286047000.1,N
1618705656.0,286047000.1,N
1618705675.8,286047002.3,N
1618705695.7,286047002.3,N
1618705715.5,286047003.7,N
1618705735.3,286047000.1,N
1618705755.2,286047000.9,N
1618705775.0,286047000.8,N
1618705775.9,286047000.8,N
1618705795.8,286047000.7,N
1618705815.6,286047000.4,N
1618705835.4,286046996.6,N
1618705855.3,286046996.5,N
1618705905.1,286047001.4,E
1618705915.1,286047002.0,N
1618705916.0,286047002.0,P
1618705935.8,286046999.7,P
1618705955.6,286047000.8,N
1618705975.5,286046996.7,Y
1618705995.3,286047000.4,P
1618706015.1,286047002.5,P
1618706035.9,286047000.9,N
1618706055.7,286047000.8,N
1618706075.6,286046998.7,N
1618706095.4,286046996.9,N
1618706115.2,286046997.2,N
1618706135.1,286046999.6,N
1618706136.0,286046999.6,N
1618706155.8,286046997.9,N
1618706175.6,286046994.9,Y
1618706195.5,286046997.7,P
1618706215.3,286046999.0,N
1618706235.2,286046997.4,P
1618706255.5,286046998.0,N
1618706275.3,286046999.2,N
1618706295.2,286047002.5,Y
1618706315.9,286047001.8,P
1618706335.7,286047003.4,N
1618706355.6,286047002.9,N
1618706375.4,286047002.3,N
1618706395.2,286046998.7,N
1618706415.1,286047000.5,N
1618706416.0,286047000.5,N
1618706435.8,286047002.6,N
1618706455.7,286047000.5,N
1618706475.5,286047000.4,N
1618706495.3,286047000.7,N
1618706515.2,286046999.8,N
1618706535.0,286047002.2,N
1618706535.9,286047002.2,N
1618706555.7,286047005.6,Y
1618706575.6,286047002.1,P
1618706595.4,286047002.5,P
1618706615.3,286047007.2,P
1618706635.1,286047005.6,N
1618706636.0,286047005.6,N
1618706655.8,286047003.4,N
1618706675.7,286047002.1,N
1618706695.5,286047001.2,N
1618706715.3,286046998.9,N
1618706735.2,286047004.0,N
1618706755.0,286047000.5,N
1618706755.9,286047000.5,N
1618706775.8,286047000.5,N
1618706795.6,286047001.3,N
1618706815.4,286047001.6,N
1618706835.3,286047005.8,N
1618706855.1,286047004.4,N
1618706875.9,286047002.6,N
1618706895.7,286046998.7,N
1618706915.5,286047002.7,N
1618706935.4,286047000.0,N
1618706955.2,286046998.1,N
1618706975.1,286047001.1,N
1618706976.0,286047001.1,N
1618706995.8,286047000.0,N
1618707015.6,286046999.7,N
1618707035.5,286047000.1,N
1618707055.3,286047000.0,N
1618707075.2,286047001.3,N
1618707095.9,286046999.7,N
1618707115.7,286047000.7,N
1618707135.6,286046998.9,N
1618707155.4,286046996.6,N
1618707175.2,286046999.1,N
1618707195.1,286046997.0,N
1618707196.0,286046997.0,N
1618707215.8,286046997.8,N
1618707235.7,286046995.0,N
1618707255.5,286046994.9,N
1618707275.3,286046997.5,N
1618707295.2,286046999.6,N
1618707315.0,286046997.8,N
1618707315.9,286046997.8,N
1618707335.8,286046999.3,N
1618707355.6,286046998.3,N
1618707375.4,286047000.6,N
1618707395.3,286047002.5,N
1618707415.1,286047002.6,N
1618707435.8,286046999.7,N
1618707455.7,286047000.4,N
1618707475.5,286047001.1,N
1618707495.4,286046999.4,N
1618707515.2,286046999.3,N
1618707535.0,286046999.2,N
1618707535.9,286046999.2,N
1618707555.8,286046998.2,N
1618707575.6,286046999.6,N
1618707595.5,286046998.8,N
